Location: ??
(35.4627°N, 139.3695°E)
Time: 15:54:10
(UTC+00:00)

GPS 2-04 Rocket1 - Pass Details

Date: 25 November 2020
Orbit: 416 x 544 km, 35.6° (Epoch: 20 January)

Event Time Altitude Azimuth Distance (km) Brightness Sun altitude
Exits shadow 20:15:33 23° 253° (WSW) 1,092 3.8 -14.8°
Maximum altitude 20:17:52 78° 170° (S) 498 2.6 -14.3°
Drops below altitude 10° 20:21:35 10° 84° (E) 1,622 6.4 -13.6°
Sets 20:23:42 0° 83° (E) 2,474 7.5 -13.2°
